星链-3339 (STARLINK-3339 )

导读 | 星芒AI

STARLINK-3339 是 SpaceX Starlink 项目中的一颗低轨通信卫星,旨在为全球用户提供高速互联网服务。该卫星属于 Starlink 群体部署计划的一部分,通常通过猎鹰9号火箭发射入轨。它运行在约 550 公里的高度,采用先进推进系统和激光通信技术,以提升网络连接效率与稳定性。Starlink 卫星群致力于覆盖偏远地区,减少全球数字鸿沟。

基本信息
目录编号:
50820
目录名称:
STARLINK-3339
国际标识:
2022-001T
轨道中心:
EARTH
卫星名称:
星链-3339
卫星全名:
星链-3339 (STARLINK-3339 )
卫星状态:
在轨 (已飞行1444 天)
发射日期:
2022-01-06 UTC
国别 :
美国 (US)
星等 :
--
轨道信息
数据来源 国际轨道数据 AOE轨道数据
星历时间 2025-12-19T19:13:21+0800
1天前
查看轨道信息
2025-12-20T08:00:00+0800
12小时前
查看轨道信息
半长轴 6917.899km 6917.907km
偏心率 0.0001354 0.0002716
轨道倾角 53.216° 53.222°
近地点辐角 93.158° 126.289°
升交点赤经 169.250° 166.872°
平近点角 266.957° 247.238°
近地点 538.825km 537.891km
远地点 540.699km 541.649km
周期 95.438分钟 95.438分钟
每日圈数 15.088342 15.088313
详细信息
固有亮度:
5
最大亮度:
2.5
卫星平台:
Starlink v1.5
覆盖范围:
全球
运营商:
太空探索技术公司
运营商所在国:
美国
制造商(研发单位):
太空探索技术公司
制造商所在国:
美国
使用方式:
暂无
卫星简介
星链(Starlink)计划是由太空探索技术公司(SpaceX)提出的一个巨型低轨卫星互联网星座项目,计划在2019年至2024年间在太空搭建由约1.2万颗卫星组成的“星链”网络,其中1584颗将部署在地球上空550千米处的近地轨道,并从2020年开始工作。该卫星仍在工作。
2D轨道图
3D轨道图
轨道高度分析图
轨道倾角分析图
轨道综合分析图
查看轨道综合分析图